Location: Asis
(14.1331°N, 120.9056°E)
Time: 13:21:29
(UTC+00:00)

Cosmos 2082 Rocket - Pass Details

Date: 15 January 2026
Orbit: 831 x 853 km, 71.0° (Epoch: 15 February)

Event Time Altitude Azimuth Distance (km) Brightness Sun altitude
Rises 11:06:57 0° 175° (S) 3,365 5.5 -19.0°
Reaches altitude 10° 11:09:37 10° 165° (SSE) 2,431 4.6 -19.7°
Enters shadow 11:14:07 32° 112° (ESE) 1,394 2.9 -20.7°
